Flag for U.S.A. Weather past 2 weeks in Laredo, Texas, U.S.A.

Now
44 °F

Clear.


Feels Like: 44 °F
Forecast: 35 / 54 °F
Wind: No wind

Location: Laredo International Airport

Current Time: Mar 5, 2015 at 9:22:14 PM

Latest Report: Mar 5, 2015 at 8:56 PM


Visibility: 10 mi

Pressure: 30.56 "Hg

Humidity: 63%

Dew point: 32 °F

Location of LaredoLocation

Historic Weather in Laredo — Graph

°F

Laredo temperature yesterday

Maximum temperature yesterday: 70 °F (at 2:56 PM)
Minimum temperature yesterday: 47 °F (at 11:56 PM)
Average temperature yesterday: 63 °F

Past Weeks' High & Low Weather Summary

 TemperatureHumidityPressure
High88 °F (Feb 21, 3:56 PM)100% (Feb 28, 7:56 AM)30.56 "Hg (Feb 28, 7:56 AM)
Low36 °F (Feb 24, 2:56 AM)24% (Feb 25, 3:56 PM)29.74 "Hg (Mar 4, 3:56 PM)
Average53 °F77%30.10 "Hg
* Reported Feb 18 7:56 PM — Mar 5 7:56 PM, Laredo, Weather by CustomWeather, © 2015

Note: Actual official high and low records may vary slightly from our data, if they occured in-between our weather recording intervals... More about our weather records

Advertising

Laredo weather history for previous 24 hours

 ConditionsComfort  
Time TempWeatherWind HumidityBarometerVisibility
7:56 PM
Thu, Mar 5
46 °FClear.No wind56%30.54 "Hg10 mi
6:56 PM46 °FClear.7 mph56%30.52 "Hg10 mi
5:56 PM49 °FScattered clouds.13 mph48%30.51 "Hg10 mi
4:56 PM50 °FPassing clouds.14 mph48%30.50 "Hg10 mi
3:56 PM51 °FScattered clouds.17 mph47%30.49 "Hg10 mi
2:56 PM51 °FScattered clouds.17 mph47%30.49 "Hg10 mi
1:56 PM49 °FBroken clouds.18 mph50%30.51 "Hg10 mi
12:56 PM47 °FOvercast.17 mph54%30.55 "Hg10 mi
11:56 AM45 °FOvercast.18 mph58%30.56 "Hg10 mi
10:56 AM43 °FOvercast.20 mph60%30.54 "Hg10 mi
9:56 AM41 °FOvercast.20 mph65%30.53 "Hg10 mi
8:56 AM40 °FOvercast.21 mph68%30.49 "Hg10 mi
7:56 AM40 °FOvercast.24 mph71%30.44 "Hg10 mi
6:56 AM40 °FMostly cloudy.24 mph73%30.40 "Hg10 mi
5:56 AM41 °FOvercast.22 mph79%30.34 "Hg10 mi
4:56 AM42 °FLight rain. Overcast.20 mph89%30.29 "Hg10 mi
4:03 AM43 °FLight rain. Mostly cloudy.22 mph87%30.27 "Hg10 mi
3:56 AM42 °FLight rain. Overcast.18 mph93%30.24 "Hg10 mi
2:56 AM44 °FOvercast.20 mph86%30.21 "Hg10 mi
1:56 AM43 °FMostly cloudy.17 mph85%30.18 "Hg10 mi
12:56 AM43 °FLight rain. Mostly cloudy.23 mph89%30.14 "Hg8 mi
11:56 PM
Wed, Mar 4
47 °FOvercast.23 mph83%30.10 "Hg10 mi
10:56 PM55 °FLight rain. Overcast.24 mph84%30.00 "Hg10 mi
9:56 PM67 °FOvercast.14 mph84%29.92 "Hg10 mi
Weather by CustomWeather, © 2015

See weather overviewHow to use our weather pages